Time,TemperatureF,DewpointF,PressureIn,WindDirection,WindDirectionDegrees,WindSpeedMPH,WindSpeedGustMPH,Humidity,HourlyPrecipIn,Conditions,Clouds,dailyrainin,SolarRadiationWatts/m^2,SoftwareType,DateUTC
2015-05-05 00:15:00,69.1,60.8,30.13,NW,319,1.0,10.0,75,0.00,CLR,,0.00,0.0,WeatherDisplay:10.37,2015-05-05 04:15:00,
2015-05-05 00:45:00,68.5,59.9,30.14,NW,321,0.0,1.0,74,0.00,CLR,,0.00,0.0,WeatherDisplay:10.37,2015-05-05 04:45:00,
2015-05-05 01:15:00,67.8,60.3,30.14,NNE,33,0.0,2.0,77,0.00,CLR,,0.00,0.0,WeatherDisplay:10.37,2015-05-05 05:15:00,
2015-05-05 01:45:00,67.1,60.4,30.15,WNW,294,0.0,3.0,79,0.00,CLR,,0.00,0.0,WeatherDisplay:10.37,2015-05-05 05:45:00,
2015-05-05 02:15:00,65.0,59.7,30.15,NNW,347,0.0,8.0,83,0.00,CLR,,0.00,0.0,WeatherDisplay:10.37,2015-05-05 06:15:00,
2015-05-05 02:45:00,63.4,59.5,30.15,NNE,21,1.0,3.0,87,0.00,CLR,,0.00,0.0,WeatherDisplay:10.37,2015-05-05 06:45:00,
2015-05-05 03:15:00,63.1,59.5,30.13,SE,136,0.0,2.0,88,0.00,CLR,,0.00,0.0,WeatherDisplay:10.37,2015-05-05 07:15:00,
2015-05-05 03:45:00,62.2,58.9,30.14,ESE,111,0.0,0.0,89,0.00,CLR,,0.00,0.0,WeatherDisplay:10.37,2015-05-05 07:45:00,
2015-05-05 04:15:00,62.9,60.3,30.14,SSE,148,0.0,1.0,91,0.00,CLR,,0.00,0.0,WeatherDisplay:10.37,2015-05-05 08:15:00,
2015-05-05 04:45:00,63.1,60.1,30.15,ESE,119,0.0,2.0,90,0.00,CLR,,0.00,0.0,WeatherDisplay:10.37,2015-05-05 08:45:00,
2015-05-05 05:15:00,62.9,59.9,30.16,SE,143,0.0,0.0,90,0.00,CLR,,0.00,0.0,WeatherDisplay:10.37,2015-05-05 09:15:00,
2015-05-05 05:45:00,62.4,59.4,30.16,SE,143,0.0,1.0,90,0.00,CLR,,0.00,0.0,WeatherDisplay:10.37,2015-05-05 09:45:00,
2015-05-05 06:15:00,60.7,58.1,30.16,SE,143,0.0,0.0,91,0.00,OVC,,0.00,0.0,WeatherDisplay:10.37,2015-05-05 10:15:00,
2015-05-05 06:45:00,60.2,58.2,30.17,SE,146,0.0,0.0,93,0.00,OVC,,0.00,7.0,WeatherDisplay:10.37,2015-05-05 10:45:00,
2015-05-05 07:15:00,60.9,58.9,30.18,SSE,149,1.0,2.0,93,0.00,OVC,,0.00,32.0,WeatherDisplay:10.37,2015-05-05 11:15:00,
2015-05-05 07:45:00,62.4,60.4,30.18,SE,143,0.0,2.0,93,0.00,OVC,,0.00,114.0,WeatherDisplay:10.37,2015-05-05 11:45:00,
2015-05-05 08:15:00,65.0,61.7,30.20,East,88,0.0,3.0,89,0.00,OVC,,0.00,229.0,WeatherDisplay:10.37,2015-05-05 12:15:00,
2015-05-05 08:45:00,67.5,62.2,30.20,SE,140,1.0,4.0,83,0.00,OVC,,0.00,299.0,WeatherDisplay:10.37,2015-05-05 12:45:00,
2015-05-05 09:15:00,69.5,62.7,30.20,ESE,121,1.0,5.0,79,0.00,OVC,,0.00,448.0,WeatherDisplay:10.37,2015-05-05 13:15:00,
2015-05-05 09:45:00,71.5,63.2,30.20,SE,138,0.0,5.0,75,0.00,OVC,,0.00,508.0,WeatherDisplay:10.37,2015-05-05 13:45:00,
2015-05-05 10:15:00,73.1,61.1,30.20,SSW,203,1.0,8.0,66,0.00,OVC,,0.00,575.0,WeatherDisplay:10.37,2015-05-05 14:15:00,